Location: *
(53.4003°S, 165.3236°W)
Time: 02:05:32
(UTC+00:00)

Lacrosse 4 Rocket - Pass Details

Date: 11 December 2023
Orbit: 530 x 597 km, 68.0° (Epoch: 24 February)

Event Time Altitude Azimuth Distance (km) Brightness Sun altitude
Rises 13:28:47 0° 216° (SW) 2,732 5.1 -6.6°
Reaches altitude 10° 13:31:10 10° 205° (SSW) 1,841 4.4 -6.4°
Maximum altitude 13:34:53 32° 141° (SE) 981 3.6 -6.1°
Drops below altitude 10° 13:38:38 10° 77° (ENE) 1,857 4.4 -5.7°
Sets 13:41:03 0° 66° (ENE) 2,759 5.1 -5.5°
